KA2LAC Weather Reports


time (UTC)temp
F
wind
direction
speed
knots
gust
knots
rain 1hr
in
rain 24hr
in
rain mn
in
humidity
%
barometer
mb
20260503034010 72 254 3.5 7.8 0.01 0.36 0.36 92 1015.0
20260503033507 72 293 2.6 6.1 0.01 0.36 0.36 92 1014.7
20260503033042 72 293 2.6 6.1 0.02 0.36 0.36 91 1014.5
20260503032506 72 251 2.6 7.0 0.02 0.36 0.36 92 1014.2
20260503032010 72 223 4.3 7.0 0.02 0.36 0.36 91 1013.9
20260503031534 71 221 3.5 6.1 0.02 0.36 0.36 91 1013.6
20260503031008 71 238 3.5 8.7 0.03 0.36 0.36 91 1013.4
20260503030507 72 192 4.3 8.7 0.03 0.36 0.36 91 1013.1
20260503030030 72 193 3.5 7.8 0.05 0.36 0.36 91 1013.3
20260503025511 72 205 2.6 10.4 0.05 0.36 0.36 91 1013.2
20260503025011 71 180 6.1 12.2 0.05 0.35 0.35 91 1012.9
20260503024516 72 173 7.8 12.2 0.05 0.35 0.35 91 1012.9
20260503024011 72 156 6.1 9.6 0.05 0.35 0.35 91 1013.2
20260503023506 72 165 3.5 7.8 0.05 0.35 0.35 91 1013.5
20260503023040 72 175 3.5 8.7 0.04 0.34 0.34 91 1013.5
20260503022508 72 170 4.3 8.7 0.04 0.34 0.34 91 1013.8
20260503022011 72 169 4.3 7.8 0.04 0.34 0.34 91 1013.8
20260503021523 72 190 2.6 7.0 0.04 0.34 0.34 91 1013.8
20260503021008 72 177 4.3 7.0 0.04 0.33 0.33 92 1013.7
20260503020509 72 230 1.7 4.3 0.04 0.33 0.33 91 1014.1
20260503020026 72 251 1.7 5.2 0.02 0.31 0.31 91 1014.1
20260503015508 72 304 0.9 5.2 0.04 0.31 0.31 92 1014.0
20260503015012 72 277 0.0 4.3 0.03 0.30 0.30 92 1014.0
20260503014528 72 267 0.9 5.2 0.04 0.30 0.30 92 1014.1
20260503014010 72 246 2.6 7.8 0.04 0.30 0.30 92 1013.8
20260503013506 72 189 3.5 8.7 0.04 0.30 0.30 92 1013.3
20260503013018 72 182 6.1 8.7 0.06 0.30 0.30 92 1013.3
20260503012509 72 161 2.6 6.1 0.06 0.30 0.30 93 1013.5
20260503012009 73 173 3.5 7.8 0.06 0.30 0.30 93 1013.4
20260503011520 73 163 3.5 7.8 0.06 0.30 0.30 93 1013.6
20260503011008 72 182 4.3 7.0 0.05 0.29 0.29 93 1013.5
20260503010514 72 175 3.5 7.0 0.06 0.29 0.29 93 1013.6
20260503010031 73 173 4.3 7.0 0.08 0.29 0.29 93 1013.6
20260503005510 73 191 3.5 6.1 0.09 0.27 0.27 93 1013.7
20260503005012 73 184 2.6 6.1 0.12 0.27 0.27 93 1013.5
20260503004508 73 194 2.6 5.2 0.11 0.26 0.26 93 1013.5
20260503004007 73 215 1.7 5.2 0.11 0.26 0.26 93 1013.5
20260503003506 73 211 3.5 5.2 0.11 0.26 0.26 93 1013.2
20260503003017 73 159 2.6 5.2 0.09 0.24 0.24 93 1013.3
20260503002511 73 204 1.7 5.2 0.09 0.24 0.24 93 1013.3
20260503002007 73 232 3.5 5.2 0.09 0.24 0.24 93 1013.2
20260503001522 73 134 2.6 4.3 0.09 0.24 0.24 93 1012.8
20260503001009 73 165 0.0 4.3 0.09 0.24 0.24 92 1013.2
20260503000504 73 241 2.6 4.3 0.08 0.23 0.23 92 1013.4
20260503000008 73 244 0.9 5.2 0.06 0.21 0.21 92 1013.3
20260502235503 74 265 2.6 5.2 0.03 0.18 0.18 92 1013.4
20260502235003 74 252 1.7 4.3 0.00 0.15 0.15 92 1013.3
20260502234507 73 252 1.7 3.5 0.01 0.15 0.15 92 1013.3
20260502234003 73 334 0.0 3.5 0.01 0.15 0.15 92 1013.1
20260502233507 73 322 0.9 3.5 0.03 0.15 0.15 92 1013.1
20260502233011 73 296 0.0 6.1 0.05 0.15 0.15 92 1013.2
20260502232507 73 297 2.6 6.1 0.15 0.15 0.15 92 1013.1
20260502232010 73 324 1.7 7.8 0.15 0.15 0.15 92 1013.0
20260502231522 73 286 1.7 7.8 0.15 0.15 0.15 92 1013.2
20260502231007 73 294 1.7 7.0 0.15 0.15 0.15 92 1013.2
20260502230510 73 284 1.7 8.7 0.15 0.15 0.15 91 1013.1
20260502230023 73 259 3.5 8.7 0.15 0.15 0.15 91 1013.1
20260502225502 73 310 3.5 8.7 0.15 0.15 0.15 90 1012.9
20260502225002 73 298 3.5 8.7 0.15 0.15 0.15 89 1012.9
20260502224507 73 323 2.6 12.2 0.14 0.14 0.14 88 1012.9
20260502224002 73 296 6.1 15.6 0.14 0.14 0.14 87 1012.9
20260502223505 74 295 7.8 26.9 0.12 0.12 0.12 84 1012.7
20260502223009 77 292 7.8 26.9 0.10 0.10 0.10 79 1012.5
20260502222508 81 251 15.6 26.9 0.00 0.00 0.00 76 1012.1
20260502222008 82 211 6.1 13.0 0.00 0.00 0.00 80 1011.6
20260502221517 82 289 7.0 13.0 0.00 0.00 0.00 80 1011.6
20260502221006 82 215 8.7 13.9 0.00 0.00 0.00 80 1011.6
20260502220511 82 241 7.8 13.9 0.00 0.00 0.00 79 1011.6
20260502220022 82 251 7.8 13.0 0.00 0.00 0.00 79 1011.8
20260502215510 82 264 7.8 13.9 0.00 0.00 0.00 79 1011.9
20260502215010 82 298 8.7 13.9 0.00 0.00 0.00 78 1011.8
20260502214504 82 250 7.0 13.9 0.00 0.00 0.00 77 1011.8
20260502214004 83 273 6.1 13.9 0.00 0.00 0.00 77 1011.8
20260502213503 83 234 8.7 13.9 0.00 0.00 0.00 76 1011.9
20260502213007 83 251 6.1 13.9 0.00 0.00 0.00 75 1011.7
20260502212505 83 207 7.8 13.9 0.00 0.00 0.00 74 1011.6
20260502212005 84 252 6.1 12.2 0.00 0.00 0.00 73 1011.5
20260502211514 84 258 6.1 14.8 0.00 0.00 0.00 73 1011.4
20260502211007 84 253 7.0 14.8 0.00 0.00 0.00 72 1011.3
20260502210506 84 317 5.2 13.9 0.00 0.00 0.00 72 1011.3
20260502210020 84 245 5.2 16.5 0.00 0.00 0.00 71 1011.3
20260502205507 84 247 8.7 16.5 0.00 0.00 0.00 68 1011.3
20260502205010 85 219 8.7 16.5 0.00 0.00 0.00 68 1011.4
20260502204527 85 218 7.8 17.4 0.00 0.00 0.00 68 1011.2
20260502204011 86 235 9.6 16.5 0.00 0.00 0.00 66 1011.1
20260502203510 87 232 9.6 15.6 0.00 0.00 0.00 66 1011.2
20260502203014 87 251 8.7 14.8 0.00 0.00 0.00 66 1011.2
20260502202506 87 260 7.0 13.9 0.00 0.00 0.00 67 1011.3
20260502202006 87 260 6.1 14.8 0.00 0.00 0.00 68 1011.3
20260502201516 86 225 8.7 14.8 0.00 0.00 0.00 66 1011.2
20260502201006 87 256 9.6 14.8 0.00 0.00 0.00 65 1011.2
20260502200507 87 258 8.7 13.9 0.00 0.00 0.00 65 1011.2
20260502200019 87 253 8.7 15.6 0.00 0.00 0.00 66 1011.2
20260502195509 87 273 7.0 15.6 0.00 0.00 0.00 66 1011.2
20260502195005 87 241 8.7 15.6 0.00 0.00 0.00 63 1011.2
20260502194520 87 262 7.8 15.6 0.00 0.00 0.00 65 1011.0
20260502194009 88 219 8.7 15.6 0.00 0.00 0.00 64 1011.0
20260502193508 88 231 7.8 15.6 0.00 0.00 0.00 66 1011.1
20260502193024 88 231 10.4 15.6 0.00 0.00 0.00 62 1011.1
20260502192514 89 254 9.6 14.8 0.00 0.00 0.00 65 1011.4
20260502192006 88 273 8.7 14.8 0.00 0.00 0.00 66 1011.6
20260502191515 88 227 10.4 13.9 0.00 0.00 0.00 65 1011.7
20260502191004 87 244 7.8 13.9 0.00 0.00 0.00 68 1011.6
20260502190509 87 230 7.8 13.9 0.00 0.00 0.00 67 1011.6
20260502190015 88 232 8.7 16.5 0.00 0.00 0.00 68 1011.7
20260502185508 88 254 9.6 16.5 0.00 0.00 0.00 67 1011.8
20260502185010 88 245 9.6 15.6 0.00 0.00 0.00 68 1012.1
20260502184527 88 229 7.8 16.5 0.00 0.00 0.00 69 1012.1
20260502184009 88 290 10.4 16.5 0.00 0.00 0.00 69 1012.1
20260502183510 88 251 8.7 14.8 0.00 0.00 0.00 69 1012.2
20260502183024 87 244 8.7 14.8 0.00 0.00 0.00 71 1012.3
20260502182509 87 257 7.0 16.5 0.00 0.00 0.00 70 1012.3
20260502182011 88 257 8.7 16.5 0.00 0.00 0.00 71 1012.4
20260502181526 88 230 8.7 13.9 0.00 0.00 0.00 71 1012.4
20260502181004 88 234 8.7 15.6 0.00 0.00 0.00 69 1012.3
20260502180509 88 247 10.4 15.6 0.00 0.00 0.00 70 1012.4
20260502170514 87 279 7.8 15.6 0.00 0.00 0.00 71 1012.7
20260502164010 87 241 6.1 15.6 0.00 0.00 0.00 72 1012.5
20260502163506 86 261 8.7 15.6 0.00 0.00 0.00 72 1012.5
20260502163025 87 206 7.0 17.4 0.00 0.00 0.00 72 1012.5
20260502162512 86 208 10.4 17.4 0.00 0.00 0.00 72 1012.5
20260502162011 86 217 8.7 17.4 0.00 0.00 0.00 73 1012.5
20260502161525 86 196 7.8 16.5 0.00 0.00 0.00 75 1012.4
20260502161012 86 229 9.6 16.5 0.00 0.00 0.00 74 1012.5
20260502160509 86 280 8.7 15.6 0.00 0.00 0.00 74 1012.5
20260502152008 84 190 9.6 19.1 0.00 0.00 0.00 76 1012.1
20260502151536 84 215 10.4 19.1 0.00 0.00 0.00 75 1012.2
20260502151011 84 223 11.3 21.7 0.00 0.00 0.00 76 1012.3
20260502150509 84 202 13.0 21.7 0.00 0.00 0.00 76 1012.2
20260502130506 80 236 7.8 14.8 0.00 0.00 0.00 84 1011.8
20260502123506 78 167 3.5 7.8 0.00 0.00 0.00 87 1011.6
20260502123012 77 163 3.5 7.0 0.00 0.00 0.00 87 1011.6
20260502122506 77 187 3.5 7.8 0.00 0.00 0.00 88 1011.5
20260502122006 76 181 4.3 7.8 0.00 0.00 0.00 88 1011.5
20260502121518 76 170 4.3 7.0 0.00 0.00 0.00 89 1011.5
20260502121008 75 191 3.5 6.1 0.00 0.00 0.00 89 1011.4
20260502120507 75 168 2.6 6.1 0.00 0.00 0.00 89 1011.5
20260502115507 74 164 3.5 6.1 0.00 0.00 0.00 90 1011.4
20260502115010 74 184 2.6 6.1 0.00 0.00 0.00 90 1011.4
20260502114526 73 164 3.5 6.1 0.00 0.00 0.00 90 1011.3
20260502114007 73 169 3.5 6.1 0.00 0.00 0.00 90 1011.4
20260502113510 73 160 2.6 7.0 0.00 0.00 0.00 90 1011.4
20260502113010 73 151 1.7 7.0 0.00 0.00 0.00 90 1011.4
20260502112506 73 175 2.6 7.0 0.00 0.00 0.00 91 1011.4
20260502112007 72 149 3.5 6.1 0.00 0.00 0.00 91 1011.4
20260502111516 72 175 3.5 6.1 0.00 0.00 0.00 91 1011.5
20260502111006 72 159 2.6 5.2 0.00 0.00 0.00 91 1011.6
20260502110506 72 165 0.0 3.5 0.00 0.00 0.00 91 1011.5
20260502110026 72 167 0.9 3.5 0.00 0.00 0.00 91 1011.4
20260502105507 72 157 2.6 3.5 0.00 0.00 0.00 91 1011.4
20260502105005 72 142 0.9 2.6 0.00 0.00 0.00 91 1011.4
20260502104524 72 116 0.9 2.6 0.00 0.00 0.00 91 1011.4
20260502104011 72 138 1.7 3.5 0.00 0.00 0.00 91 1011.4
20260502103511 72 135 0.9 3.5 0.00 0.00 0.00 91 1011.4
20260502103027 72 159 0.0 4.3 0.00 0.00 0.00 90 1011.4
20260502102510 72 103 1.7 4.3 0.00 0.00 0.00 90 1011.4
20260502102010 72 147 0.9 4.3 0.00 0.00 0.00 90 1011.4
20260502101514 72 143 1.7 3.5 0.00 0.00 0.00 90 1011.4
20260502101012 72 144 1.7 3.5 0.00 0.00 0.00 90 1011.4
20260502100506 72 140 1.7 3.5 0.00 0.00 0.00 90 1011.4
20260502091526 72 140 1.7 5.2 0.00 0.00 0.00 89 1011.7
20260502091010 72 144 2.6 5.2 0.00 0.00 0.00 89 1011.7
20260502090505 72 159 1.7 5.2 0.00 0.00 0.00 88 1011.7
20260502071528 71 99 0.0 0.0 0.00 0.00 0.00 91 1011.7
20260502071012 70 99 0.0 0.0 0.00 0.00 0.00 90 1011.7
20260502070511 70 99 0.0 0.0 0.00 0.00 0.00 90 1011.7
20260502070026 70 14 0.0 0.0 0.00 0.00 0.00 90 1011.7
20260502065512 70 14 0.0 0.0 0.00 0.00 0.00 90 1011.8
20260502065013 71 14 0.0 0.0 0.00 0.00 0.00 90 1011.8
20260502064531 71 14 0.0 0.0 0.00 0.00 0.00 90 1011.8
20260502064007 71 14 0.0 0.0 0.00 0.00 0.00 89 1011.8
20260502063503 71 14 0.0 0.0 0.00 0.00 0.00 89 1011.7
20260502063008 71 14 0.0 0.0 0.00 0.00 0.00 89 1011.7
20260502062506 71 14 0.0 0.0 0.00 0.00 0.00 89 1011.7
20260502062004 71 14 0.0 0.0 0.00 0.00 0.00 89 1011.7
20260502061505 71 14 0.0 0.0 0.00 0.00 0.00 88 1011.7
20260502061004 71 14 0.0 0.0 0.00 0.00 0.00 88 1011.8
20260502060503 71 14 0.0 0.0 0.00 0.00 0.00 88 1011.9
20260502060004 71 14 0.0 0.0 0.00 0.00 0.00 88 1011.8
20260502055504 71 14 0.0 0.0 0.00 0.00 0.00 88 1011.9
20260502055003 71 14 0.0 0.0 0.00 0.00 0.00 88 1012.0
20260502054504 71 14 0.0 0.0 0.00 0.00 0.00 87 1012.0
20260502054004 72 14 0.0 0.0 0.00 0.00 0.00 87 1012.1
20260502053503 72 14 0.0 0.0 0.00 0.00 0.00 87 1012.1
20260502053004 72 331 0.0 0.0 0.00 0.00 0.00 87 1012.0
20260502052504 72 270 0.0 0.0 0.00 0.00 0.00 87 1012.2
20260502052004 72 270 0.0 0.0 0.00 0.00 0.00 87 1012.3
20260502051505 72 270 0.0 0.0 0.00 0.00 0.00 87 1012.3
20260502051003 72 270 0.0 0.0 0.00 0.00 0.00 87 1012.3
20260502050504 72 270 0.0 0.0 0.00 0.00 0.00 87 1012.4
20260502050007 72 270 0.0 0.0 0.00 0.00 0.00 86 1012.4
20260502045502 72 271 0.0 0.0 0.00 0.00 0.00 86 1012.5
20260502045009 72 270 0.0 0.0 0.00 0.00 0.00 86 1012.4
20260502044506 72 270 0.0 0.0 0.00 0.00 0.00 85 1012.4
20260502044006 72 270 0.0 0.0 0.00 0.00 0.00 85 1012.3
20260502043505 73 270 0.0 0.9 0.00 0.00 0.00 85 1012.4
20260502043008 73 265 0.0 1.7 0.00 0.00 0.00 85 1012.3
20260502042504 73 261 0.0 2.6 0.00 0.00 0.00 85 1012.3
20260502042004 73 248 0.9 2.6 0.00 0.00 0.00 85 1012.3
20260502041515 73 252 0.0 2.6 0.00 0.00 0.00 85 1012.2
20260502041004 73 255 0.9 3.5 0.00 0.00 0.00 85 1012.3
20260502040504 73 242 0.9 3.5 0.00 0.00 0.00 84 1012.2
20260502040007 73 242 0.0 2.6 0.00 0.00 0.00 84 1012.2
20260502035503 73 236 0.9 2.6 0.00 0.00 0.00 84 1012.2
20260502035004 73 243 0.9 3.5 0.00 0.00 0.00 84 1012.3
20260502034506 73 239 0.9 3.5 0.00 0.00 0.00 84 1012.4